Home > Weather > Teresina > Past weeks

Flag for Brazil Weather for the Past 2 Weeks in Teresina, Piauí, Brazil

Now
91 °F

Partly sunny.


Feels Like: 103 °F
Forecast: 77 / 94 °F
Wind: 8 mph from Southeast

Location: Teresina Aeroporto

Current Time: Feb 7, 2016 at 12:42:39 PM

Latest Report: Feb 7, 2016 at 12:00 PM


Visibility: N/A

Pressure: 29.92 "Hg

Humidity: 59%

Dew point: 75 °F

Location of TeresinaLocation

Historic Weather in Teresina — Graph

°F

Teresina Temperature Yesterday

Maximum temperature yesterday: 93 °F (at 3:00 PM)
Minimum temperature yesterday: 77 °F (at 5:00 AM)
Average temperature yesterday: 84 °F

High & Low Weather Summary for the Past Weeks

 TemperatureHumidityPressure
High95 °F (Feb 5, 3:00 PM)100% (Jan 24, 7:00 PM)29.98 "Hg (Jan 24, 7:00 PM)
Low39 °F (Feb 2, 6:00 PM)36% (Jan 30, 5:00 PM)29.77 "Hg (Jan 29, 5:00 PM)
Average81 °F78%29.88 "Hg
* Reported Jan 23 11:00 AM — Feb 7 11:00 AM, Teresina, Weather by CustomWeather, © 2016

Note: Actual official high and low records may vary slightly from our data, if they occured in-between our weather recording intervals... More about our weather records

Advertising

Teresina Weather History for the Previous 24 Hours

 ConditionsComfort  
Time TempWeatherWind HumidityBarometerVisibility
11:00 AM
Sun, Feb 7
88 °FPartly sunny.7 mph59%29.92 "HgN/A
10:00 AM88 °FScattered clouds.3 mph66%29.95 "HgN/A
9:00 AM86 °FPassing clouds.3 mph75%29.95 "HgN/A
8:00 AM82 °FSunny.No wind79%29.92 "Hg10 mi
7:00 AM79 °FSunny.3 mph89%29.89 "Hg10 mi
6:00 AM77 °FSunny.No wind94%29.89 "Hg10 mi
5:00 AM79 °FPassing clouds.No wind89%29.89 "HgN/A
4:00 AM79 °FPassing clouds.3 mph89%29.86 "HgN/A
3:00 AM81 °FPassing clouds.3 mph84%29.86 "HgN/A
2:00 AM79 °FPassing clouds.No wind89%29.86 "HgN/A
1:00 AM81 °FPassing clouds.6 mph79%29.89 "HgN/A
12:00 AM82 °FPassing clouds.10 mph74%29.92 "HgN/A
11:00 PM
Sat, Feb 6
82 °FPassing clouds.3 mph89%29.92 "HgN/A
10:00 PM84 °FPassing clouds.No wind84%29.89 "HgN/A
9:00 PM84 °FPassing clouds.No wind84%29.89 "HgN/A
8:00 PM86 °FClear.No wind75%29.89 "Hg10 mi
7:00 PM86 °FClear.No wind75%29.86 "Hg10 mi
6:00 PM90 °FSunny.3 mph59%29.86 "Hg10 mi
5:00 PM91 °FSunny.6 mph56%29.83 "Hg10 mi
4:00 PM91 °FSunny.6 mph46%29.83 "Hg10 mi
3:00 PM93 °FScattered clouds.6 mph44%29.86 "HgN/A
2:00 PM91 °FPartly sunny.9 mph49%29.89 "HgN/A
12:00 PM90 °FPartly sunny.2 mph59%29.92 "HgN/A
Weather by CustomWeather, © 2016

See weather overviewHow to use our weather pages